Location: Albany
(42.6526°N, 73.7562°W)
Time: 01:07:39
(UTC+00:00)

Cosmos 2297 Rocket - Pass Details

Date: 19 November 2019
Orbit: 839 x 843 km, 71.0° (Epoch: 08 December)

Event Time Altitude Azimuth Distance (km) Brightness Sun altitude
Rises 22:43:50 0° 327° (NNW) 3,406 5.6 -13.7°
Reaches altitude 10° 22:46:28 10° 318° (NW) 2,468 5.0 -14.2°
Maximum altitude 22:51:30 34° 255° (WSW) 1,362 4.0 -15.1°
Drops below altitude 10° 22:56:30 10° 193° (SSW) 2,454 4.9 -16.0°
Sets 22:59:08 0° 184° (S) 3,384 5.5 -16.5°
